Location: Newark
(55.8871°S, 37.4681°W)
Time: 03:03:19
(UTC+00:00)

N. Korean satellite - Visible Passes

Search period start: 14 October 2019 00:00
Search period end: 24 October 2019 00:00
Orbit: 455 x 508 km, 97.2° (Epoch: 13 October)

Date Brightness Start Highest point End Pass type
(mag) Time Alt. Az. Time Alt. Az. Time Alt. Az.
14 Oct 9.5 06:15:40 10° ENE 06:18:45 24° ESE 06:21:51 10° S visible
14 Oct 10.1 22:14:58 10° SSW 22:17:12 15° SW 22:19:25 10° W visible
15 Oct 10.2 05:51:24 10° E 05:53:43 16° SE 05:56:02 10° SSE visible
15 Oct 9.6 21:49:09 10° S 21:52:10 24° WSW 21:55:07 10° WNW visible
16 Oct 10.8 05:28:15 10° ESE 05:28:44 10° SE 05:29:14 10° SE visible
17 Oct 10.6 22:33:20 10° SSW 22:34:31 11° SW 22:35:41 10° WSW visible
18 Oct 9.8 06:08:11 10° ENE 06:11:04 21° ESE 06:13:57 10° S visible
18 Oct 10.1 22:07:03 10° SSW 22:09:31 17° WSW 22:11:56 10° W visible
19 Oct 10.3 05:44:05 10° E 05:46:02 14° SE 05:47:59 10° SSE visible
21 Oct 10.4 22:25:10 10° SSW 22:26:47 13° SW 22:28:24 10° W visible
22 Oct 10.1 06:00:42 10° ENE 06:03:20 18° ESE 06:05:58 10° SSE visible
23 Oct 10.5 05:36:52 10° ESE 05:38:19 12° SE 05:39:46 10° SSE visible
